This demonstration page uses our WeatherBlox Daily Observations layout. Learn more.

Left ArrowRight Arrow

Hourly Observations for September 10, 2021

Temp ( °F °C ) Dew Point ( °F °C ) Humidity (%) Winds ( mph kmh ) Pressure ( in mb ) Visibility ( mi km ) Precip ( " mm )
12:53 am 00:53 Clear 68 20 58 14.4 70 70 SSE 5 7 29.92 1013 10 16 0.00 0.00
1:53 am 01:53 Clear 67 19.4 58 14.4 73 73 ESE 3 6 29.91 1013 10 16 0.00 0.00
2:53 am 02:53 Clear 63 17.2 58 14.4 84 84 ENE 5 7 29.90 1013 10 16 0.00 0.00
3:53 am 03:53 Clear 62 16.7 58 14.4 86 86 Calm 29.90 1012 10 16 0.00 0.00
4:53 am 04:53 Clear 61 16.1 57 13.9 87 87 Calm 29.90 1012 10 16 0.00 0.00
5:53 am 05:53 Clear 58 14.4 56 13.3 93 93 Calm 29.91 1013 10 16 0.00 0.00
6:53 am 06:53 Clear 59 15 56 13.3 90 90 Calm 29.91 1013 10 16 0.00 0.00
7:53 am 07:53 Sunny 59 15 56 13.3 90 90 Calm 29.93 1013 9 14 0.00 0.00
8:53 am 08:53 Sunny 62 16.7 58 14.4 86 86 Calm 29.93 1013 10 16 0.00 0.00
9:53 am 09:53 Sunny 69 20.6 62 16.7 78 78 N 3 6 29.93 1014 10 16 0.00 0.00
10:53 am 10:53 Sunny 74 23.3 62 16.7 67 67 Calm 29.93 1014 10 16 0.00 0.00
11:53 am 11:53 Sunny 79 26.1 64 17.8 60 60 N 7 11 29.93 1014 10 16 0.00 0.00
12:53 pm 12:53 Sunny 83 28.3 65 18.3 55 55 E 5 7 29.90 1013 10 16 0.00 0.00
1:53 pm 13:53 Sunny 86 30 66 18.9 51 51 Calm 29.89 1012 10 16 0.00 0.00
2:53 pm 14:53 Sunny 88 31.1 65 18.3 46 46 VRB 5 7 29.88 1012 10 16 0.00 0.00
3:53 pm 15:53 Sunny 89 31.7 68 20 50 50 VRB 3 6 29.87 1011 10 16 0.00 0.00
4:53 pm 16:53 Sunny 90 32.2 66 18.9 45 45 SSE 5 7 29.86 1011 10 16 0.00 0.00
5:53 pm 17:53 Sunny 90 32.2 67 19.4 47 47 Calm 29.86 1011 10 16 0.00 0.00
6:53 pm 18:53 Sunny 87 30.6 71 21.7 59 59 SE 6 9 29.86 1011 10 16 0.00 0.00
7:53 pm 19:53 Clear 82 27.8 71 21.7 69 69 SE 3 6 29.86 1011 10 16 0.00 0.00
8:53 pm 20:53 Clear 81 27.2 71 21.7 72 72 SSE 6 9 29.86 1011 10 16 0.00 0.00
9:53 pm 21:53 Clear 78 25.6 70 21.1 76 76 SE 8 13 29.86 1011 10 16 0.00 0.00
10:53 pm 22:53 Clear 77 25 69 20.6 77 77 SSE 8 13 29.86 1011 10 16 0.00 0.00
11:53 pm 23:53 Clear 74 23.3 68 20 82 82 SSE 6 9 29.86 1011 10 16 0.00 0.00

Powered by AerisWeather